Theta_e
303 303 303 304 303 303 303 303 304 303 303 303 303 303 304 303 303 303 303 303 302 302 302 301 301 300 299 299 299 299 300 300 302 305 309 312 311 309 307 306 305 304 304 303 304 308 311 312 314 315 316 317 315 315 315 316 318 318 319 318 316 317 318 320 320 321 321 322 323 324 324 324 324 325 325 324 324 324 324 324 323 324 324 330 340 345 348 345
302 302 302 302 302 302 302 302 302 302 302 302 302 302 302 303 303 303 303 302 300 300 300 300 301 300 300 299 299 299 299 301 304 309 311 311 309 306 304 302 302 304 302 303 308 311 313 314 314 315 316 316 315 315 315 316 317 318 319 317 317 318 319 321 320 322 322 322 323 324 324 324 324 325 324 323 323 323 323 323 323 325 322 332 343 343 343 341
302 302 302 302 301 302 301 301 300 300 301 301 301 301 301 302 303 303 302 300 300 301 300 300 300 300 300 299 299 298 301 304 308 312 312 308 307 306 303 301 302 304 304 305 309 312 313 314 316 316 316 315 315 315 315 316 317 317 318 317 318 319 319 321 321 322 321 322 323 323 323 324 324 325 324 323 324 322 323 323 322 325 322 329 342 342 337 337
302 302 303 303 303 303 303 302 301 300 300 300 300 299 300 300 302 302 301 300 302 302 301 300 299 299 299 300 299 299 304 309 312 315 312 309 308 305 302 301 301 302 305 308 310 310 312 315 316 317 317 316 315 315 316 316 316 317 318 317 318 319 319 320 321 321 321 322 322 323 323 323 324 323 324 324 324 323 323 324 322 324 323 324 338 343 338 335
302 302 303 303 303 303 303 303 302 301 302 302 301 301 300 300 300 300 300 301 301 301 300 300 299 299 299 300 299 302 307 311 313 315 312 310 309 304 301 301 301 300 304 309 310 310 311 314 316 318 319 317 316 315 315 316 316 317 318 318 319 319 319 320 321 320 321 321 322 322 322 322 323 323 325 323 323 322 323 324 323 324 323 323 334 343 344 340
301 301 302 302 302 303 303 303 302 301 302 303 302 302 302 300 300 300 300 300 299 299 299 299 299 298 300 300 300 304 309 310 310 311 310 309 308 304 301 301 301 301 304 309 310 310 311 313 315 317 318 318 316 315 315 316 316 316 317 318 319 319 319 320 321 321 321 321 321 322 322 322 323 323 324 323 324 323 323 324 323 324 322 324 337 343 345 345
301 301 301 301 302 303 303 302 301 300 301 302 301 301 301 300 299 299 298 298 299 298 299 299 299 299 299 300 302 307 310 309 311 311 309 308 306 304 301 300 301 303 306 309 309 310 312 313 315 317 318 317 316 316 316 316 316 316 316 318 318 319 319 319 320 321 320 321 321 321 322 321 322 322 323 323 324 322 324 323 322 324 322 326 340 343 343 345
301 301 301 300 301 303 303 303 302 300 300 301 301 300 299 298 298 299 298 298 298 298 299 299 299 299 298 301 306 308 309 309 310 309 307 306 305 303 301 302 303 304 306 308 308 310 312 314 315 315 315 316 316 315 315 316 316 315 315 317 318 318 319 319 320 320 320 321 321 321 321 321 321 322 322 322 323 322 324 323 322 323 321 328 337 336 334 337
302 302 301 301 302 303 302 303 303 301 300 301 302 301 300 299 298 298 298 298 298 299 299 298 298 298 298 303 307 308 308 308 306 306 305 305 304 303 303 303 304 304 306 306 307 308 310 313 315 315 315 315 316 315 315 315 315 315 316 317 317 317 319 319 319 319 319 320 320 321 320 321 322 320 321 322 322 323 323 323 322 322 321 323 329 329 328 328
302 301 302 302 302 302 302 302 303 302 302 302 302 302 301 299 298 298 298 298 298 298 298 297 299 299 301 305 307 307 308 307 305 305 304 304 304 303 303 304 304 305 305 305 306 307 309 311 313 315 315 315 315 314 315 314 315 316 316 317 317 317 318 318 319 319 319 320 319 320 319 321 321 320 321 322 322 322 322 321 321 321 322 321 321 325 326 330
302 302 302 302 302 302 302 302 302 302 302 302 302 301 300 298 298 297 298 298 298 298 298 297 298 300 303 305 306 307 307 306 306 305 304 305 304 304 305 305 305 305 305 305 305 306 308 309 311 313 314 315 315 314 315 314 315 316 316 317 317 317 318 318 318 319 319 319 320 320 319 320 320 320 319 322 322 321 322 321 321 321 321 321 321 322 321 329
302 302 302 302 302 302 301 302 301 301 301 300 300 300 299 298 298 298 298 298 298 297 297 297 297 299 303 305 305 306 305 306 306 306 306 306 305 306 305 305 305 305 305 305 305 305 306 308 310 311 313 314 315 314 314 315 314 315 315 315 316 317 317 317 317 318 318 318 320 320 318 318 319 320 319 322 321 321 322 319 321 321 321 321 320 322 319 324
302 302 301 301 301 301 300 301 302 301 301 300 300 300 300 299 298 298 298 298 298 298 297 297 297 300 304 305 305 305 305 307 307 307 306 305 305 305 304 304 304 304 304 304 304 305 305 307 308 310 312 313 314 315 315 316 315 315 315 314 315 315 315 317 317 317 318 318 319 318 315 316 319 320 319 320 320 320 321 320 320 320 320 321 319 322 320 320
301 301 301 301 301 301 300 300 301 301 301 301 301 301 301 300 298 298 298 298 298 298 297 297 297 301 304 305 305 305 306 307 306 306 306 305 305 304 304 304 304 304 304 304 304 304 305 306 308 309 311 312 314 315 316 317 315 314 314 314 314 313 313 317 318 317 317 317 318 318 313 315 318 319 320 319 320 319 319 320 320 321 320 320 320 321 320 319
299 300 300 300 301 301 300 299 301 302 302 301 301 301 301 300 299 299 299 298 298 298 298 297 298 302 306 306 306 307 306 307 307 306 305 305 304 305 304 304 304 304 304 304 304 304 304 305 306 309 310 312 313 314 315 316 316 314 313 313 313 313 313 316 318 317 317 317 318 317 314 315 318 319 319 319 319 319 319 320 319 320 320 320 320 319 322 318
299 300 301 300 300 300 301 301 301 302 302 301 301 301 302 301 299 299 299 299 300 300 299 298 301 305 307 307 307 307 306 307 307 306 305 305 304 304 304 304 305 304 304 304 304 305 305 304 306 308 310 311 312 313 315 316 315 314 313 313 312 312 313 315 317 317 318 317 318 317 315 316 317 318 320 319 319 319 319 319 319 321 319 320 320 319 321 318
299 300 300 300 300 300 301 301 301 302 302 302 302 303 302 301 300 301 302 302 304 304 302 302 305 307 308 307 306 306 307 306 306 305 305 305 304 304 304 304 305 305 305 305 305 306 305 304 305 307 309 310 311 312 315 316 315 313 313 312 313 314 314 313 315 317 318 317 317 317 316 316 317 318 319 319 319 319 320 319 319 320 319 320 319 321 321 318
299 300 300 300 300 300 301 301 302 302 302 303 303 303 303 301 301 303 304 305 306 306 305 305 306 306 307 307 306 307 307 306 305 305 304 304 304 304 304 305 305 305 305 305 305 306 306 305 304 306 308 309 311 312 313 315 314 312 312 312 313 313 313 313 315 317 317 317 317 317 316 317 317 318 318 319 319 319 320 319 320 319 320 321 319 322 319 320
300 300 300 300 300 301 302 302 303 303 302 303 304 303 304 304 305 306 306 307 308 307 307 308 306 306 308 307 307 307 307 306 305 304 304 304 304 304 304 304 305 305 305 304 305 306 306 305 304 305 307 308 310 311 312 314 313 313 313 313 312 312 313 315 316 316 317 316 317 317 316 316 317 317 318 319 319 319 319 319 321 320 319 321 320 323 319 324
299 300 300 300 301 302 302 303 303 302 302 303 303 305 307 307 307 308 308 307 308 307 307 307 307 307 307 307 307 307 307 307 306 305 305 304 303 304 304 304 304 304 304 304 304 305 306 305 304 305 307 308 309 311 312 312 313 314 315 313 312 312 313 316 316 317 317 316 316 317 317 316 317 318 318 319 319 319 320 320 321 320 320 322 321 323 321 325
299 300 300 301 302 302 302 303 302 302 303 304 304 306 308 306 306 306 306 305 305 305 306 306 306 306 306 306 306 306 306 307 306 306 305 304 304 303 303 304 304 304 304 304 304 305 306 305 304 305 306 308 309 310 311 312 313 313 315 313 312 313 313 315 316 316 317 316 315 317 317 317 317 318 318 318 319 318 320 320 321 321 320 322 322 324 322 320
300 301 301 301 302 302 302 302 302 304 304 305 305 307 307 306 305 304 304 304 305 305 305 305 306 306 306 306 306 306 306 306 306 306 305 304 304 304 303 304 304 304 304 305 304 304 304 305 304 304 306 308 309 310 311 311 312 312 314 313 312 313 313 315 315 316 317 315 315 317 317 316 317 318 318 318 319 318 320 320 321 321 321 323 321 323 322 319
301 302 302 301 301 301 302 302 303 305 305 305 306 306 305 305 304 304 304 304 305 306 306 306 306 307 307 307 307 306 306 306 306 306 305 305 305 304 304 303 303 304 304 304 304 303 303 305 305 305 305 308 309 310 311 311 312 313 313 313 312 313 313 313 314 316 317 316 316 317 316 317 317 318 318 319 319 318 320 320 321 320 320 322 320 322 322 321
302 302 302 301 301 302 302 303 304 306 305 305 305 305 305 304 303 304 304 304 305 306 307 307 307 308 308 307 306 306 306 306 306 306 305 305 305 304 304 304 303 303 303 303 303 303 303 305 306 306 305 307 309 310 311 312 312 313 313 313 313 313 314 313 314 315 316 316 316 316 315 315 317 318 317 318 320 319 320 319 321 321 320 322 320 323 321 322
302 302 302 302 301 302 302 304 306 305 305 305 305 305 304 304 304 304 304 305 306 307 308 307 307 307 307 306 306 306 306 306 306 306 306 305 305 304 304 304 303 303 303 303 303 304 304 304 306 306 305 306 309 311 312 312 312 312 313 313 313 314 315 315 315 315 312 312 316 315 313 313 316 317 317 318 318 318 320 320 320 321 321 322 320 323 321 323
303 302 302 302 302 302 302 305 306 305 305 306 305 305 304 304 304 304 304 305 307 309 308 306 306 306 306 306 306 306 306 306 306 306 306 305 305 305 305 304 304 303 303 303 303 303 304 305 305 306 306 306 308 311 312 313 313 312 313 313 313 314 315 316 315 313 310 311 315 316 313 313 314 316 317 318 318 318 320 320 320 320 320 322 320 322 322 322
303 302 302 302 303 303 303 304 304 304 306 306 305 305 304 304 304 303 305 307 309 309 308 306 306 307 306 307 307 306 306 306 306 306 306 306 305 305 304 304 304 303 303 304 303 303 304 305 304 306 306 306 308 311 312 313 312 312 314 314 314 314 315 316 315 313 312 313 315 316 314 312 312 315 318 319 318 318 319 319 320 320 320 321 320 322 322 322
302 302 303 303 304 304 304 304 304 304 306 305 305 304 304 304 304 304 306 309 311 309 309 308 308 307 307 307 307 306 307 307 306 306 306 305 305 305 304 303 303 303 303 303 303 304 304 305 305 305 307 307 308 311 312 313 313 313 314 315 314 314 315 316 315 314 314 314 313 313 314 313 311 315 318 318 318 317 319 319 320 320 320 321 321 321 323 323
302 302 303 303 305 306 305 305 304 305 305 305 304 304 304 304 304 304 306 309 310 309 310 309 308 308 308 308 308 307 307 307 307 306 305 305 305 305 304 304 304 303 303 303 303 304 305 306 306 305 307 308 309 311 312 312 313 313 315 315 314 314 314 316 316 314 314 314 312 312 312 312 311 313 316 317 317 317 319 320 319 320 320 320 321 320 324 324
302 302 303 303 305 306 306 305 305 305 305 305 305 304 304 304 305 307 309 310 310 309 310 310 309 308 308 308 308 308 307 307 307 307 306 305 305 305 304 304 305 304 303 303 303 304 305 306 307 306 307 309 310 311 312 313 313 314 314 314 314 314 315 316 316 314 314 314 313 312 313 313 311 312 315 316 318 319 319 320 320 321 320 320 322 321 322 324
301 303 303 303 304 305 306 306 306 305 305 305 305 305 305 305 305 307 311 311 309 309 309 309 309 308 308 308 308 308 307 308 308 308 307 306 305 305 305 304 304 304 304 303 303 304 304 305 306 307 307 309 310 311 312 313 313 313 314 314 314 314 314 314 314 315 314 314 312 312 314 313 311 313 316 318 319 320 320 321 320 321 321 320 322 321 322 324
302 303 303 304 305 306 306 306 306 305 305 305 305 305 305 306 307 308 310 310 309 309 309 309 308 307 308 308 308 308 308 308 308 307 306 306 305 305 305 304 304 304 304 304 304 304 305 304 305 307 307 308 310 311 312 313 313 313 313 314 313 313 314 314 313 314 314 313 312 314 313 313 312 314 318 319 319 320 321 321 321 321 321 320 321 322 322 323
302 303 303 305 306 307 307 306 305 305 305 305 305 305 305 307 309 309 309 309 309 309 309 309 308 308 308 307 308 308 308 308 308 307 307 306 306 305 305 304 304 305 305 305 305 305 305 305 305 307 308 309 310 311 312 313 313 313 313 313 313 312 315 316 314 313 313 312 313 315 314 313 313 315 319 320 319 320 321 322 322 321 321 321 320 321 321 322
304 305 305 306 307 307 307 306 306 305 305 305 305 305 306 307 309 309 309 309 309 308 309 309 308 308 308 308 308 308 308 307 307 307 307 306 306 305 305 305 304 304 305 305 306 306 306 306 306 307 308 310 310 311 313 313 312 313 313 314 313 313 315 315 313 313 313 312 312 314 314 312 313 316 319 320 320 322 323 323 322 321 321 321 321 321 321 323
306 307 307 307 307 307 307 306 306 305 305 306 305 306 307 308 308 308 309 309 308 309 308 308 307 308 309 309 309 309 308 307 307 307 307 306 306 306 306 305 304 304 305 306 307 307 306 307 307 308 310 311 311 311 313 314 313 314 314 314 313 313 314 313 313 314 314 313 313 313 314 314 315 319 322 320 320 323 325 323 322 323 322 320 321 321 320 323
306 307 307 308 308 307 307 307 306 306 306 306 306 306 307 308 308 308 309 308 308 308 308 308 308 308 309 309 308 309 307 306 307 307 307 307 307 306 306 305 305 304 304 306 307 307 307 307 308 308 309 311 312 312 312 313 314 314 313 313 314 315 315 313 313 315 315 315 315 313 313 315 316 318 320 321 320 322 324 323 323 324 323 322 324 322 322 324
306 307 308 308 308 307 307 307 306 306 307 306 306 307 307 308 308 308 308 308 308 308 308 308 309 308 309 309 308 308 308 307 306 307 307 307 307 306 305 305 306 305 304 306 307 308 308 308 308 307 308 310 312 312 312 313 314 314 312 313 314 315 315 314 314 315 316 315 315 313 312 313 314 316 319 321 320 323 323 322 324 326 325 324 324 324 324 324
306 307 308 308 308 307 307 307 307 307 307 306 306 307 307 307 308 308 308 308 308 308 308 308 309 308 308 309 308 308 308 307 307 306 306 306 306 307 305 306 306 306 305 306 306 307 308 309 309 308 309 311 312 312 312 313 314 313 314 314 315 314 314 314 315 316 317 316 314 313 312 313 313 315 318 319 320 323 324 322 323 325 326 326 325 324 324 325
307 307 309 309 308 307 307 307 307 307 307 307 307 308 308 308 308 309 309 308 308 308 308 308 308 308 308 308 309 309 308 308 307 306 306 306 306 306 306 306 306 306 306 306 306 307 308 309 310 309 309 311 311 311 312 312 314 314 314 314 314 315 314 314 315 315 316 316 315 314 314 313 315 317 319 320 322 323 323 323 323 325 326 327 325 324 325 326
308 309 310 309 308 307 307 307 308 307 307 307 308 308 309 308 309 309 309 309 308 308 309 309 309 309 309 309 309 309 308 308 307 307 306 306 306 306 306 306 306 306 307 306 308 308 308 310 311 310 309 311 311 311 312 313 313 313 313 313 313 314 315 315 315 314 314 314 315 316 315 313 316 320 321 321 322 323 324 325 325 325 326 326 325 324 326 326
308 310 310 309 308 307 307 307 308 308 307 308 308 308 308 309 309 309 309 309 309 309 309 309 309 309 310 310 309 309 309 309 308 308 307 307 306 306 306 306 306 306 307 307 307 308 308 310 311 311 308 309 311 311 312 313 313 313 313 313 313 313 314 314 315 314 313 314 314 315 315 315 317 321 321 322 322 322 323 323 324 326 324 325 327 325 325 327
308 310 310 309 308 308 308 308 309 309 308 308 308 308 308 309 309 309 309 309 309 309 309 309 309 310 310 310 309 309 309 309 309 308 308 307 307 307 306 307 307 307 307 307 307 308 310 311 312 312 309 309 311 312 312 313 313 313 313 313 314 314 313 314 315 314 313 314 314 314 315 317 321 322 322 324 323 321 322 322 323 325 324 326 327 325 327 332
309 309 310 309 308 308 308 308 309 309 309 309 308 308 309 309 309 309 309 309 309 309 309 309 310 310 310 310 309 308 309 310 310 308 308 308 307 308 307 306 307 308 307 307 307 309 311 311 311 312 310 309 311 311 312 313 313 314 313 313 315 315 314 315 316 316 315 314 314 314 315 318 324 326 326 326 323 320 322 323 323 325 325 326 327 328 331 335
307 308 310 310 308 308 308 309 308 308 309 308 308 308 309 309 309 309 309 309 309 308 308 309 310 310 311 310 309 309 309 310 310 308 308 309 308 308 308 307 307 307 307 308 308 310 311 311 312 312 311 310 312 312 313 313 313 313 314 314 315 315 315 317 317 317 316 315 314 314 314 317 324 328 328 326 323 322 322 322 322 325 326 327 328 330 332 333
306 308 309 310 308 308 309 309 308 308 308 308 308 308 309 309 309 310 309 309 309 308 308 308 309 310 311 310 310 309 309 310 310 309 309 308 308 308 308 307 307 307 308 309 309 310 312 312 312 313 312 312 312 312 312 313 313 313 314 314 314 315 315 316 316 317 317 315 314 314 315 318 324 326 325 324 323 324 324 322 322 324 326 326 327 330 331 332
307 307 306 307 307 307 308 308 308 308 308 308 308 308 308 309 309 310 309 309 309 308 308 308 309 310 311 310 310 310 310 311 311 311 310 309 309 309 307 308 308 307 309 309 309 311 313 313 313 313 312 312 312 312 313 313 313 314 314 313 314 315 315 316 316 316 315 315 317 319 320 321 323 322 322 324 324 327 326 324 322 323 324 325 326 331 333 332
305 305 305 305 305 306 307 308 308 308 307 308 308 308 308 309 309 309 309 309 308 308 307 308 309 310 310 310 310 311 311 310 311 311 311 310 310 310 308 309 308 308 310 310 309 311 313 313 313 313 313 312 312 312 312 313 313 313 314 314 314 315 315 317 317 317 317 315 318 323 324 322 322 323 323 324 326 329 329 327 327 328 329 330 330 334 335 334
302 303 304 304 304 305 306 306 307 308 307 308 309 308 309 309 309 309 309 309 308 308 308 308 308 308 309 309 309 311 311 311 311 311 311 312 311 311 310 308 308 309 310 310 310 312 314 314 313 313 313 313 313 313 312 313 314 314 314 314 314 315 316 317 317 319 319 317 318 323 325 324 326 327 326 326 328 329 328 330 332 333 333 334 333 336 337 335
301 302 303 302 302 303 304 305 306 307 308 309 309 309 309 309 309 309 308 308 308 308 308 308 308 308 308 308 309 310 312 312 312 312 312 313 313 313 311 309 309 310 310 309 312 314 314 314 314 314 314 313 313 314 313 313 314 314 314 315 315 315 316 316 317 320 322 321 320 324 327 327 327 327 328 329 330 331 328 329 332 333 334 335 334 335 335 334
301 301 301 301 301 303 304 306 307 307 308 309 309 309 309 308 308 308 308 308 309 309 308 308 308 308 307 307 308 309 310 311 311 312 312 313 313 313 313 311 311 311 311 309 312 314 314 314 315 315 315 314 314 313 312 313 314 313 314 314 315 316 316 316 318 322 324 322 321 323 325 325 326 329 332 333 333 333 330 329 333 334 333 334 333 333 332 332
300 300 300 300 301 303 304 306 307 308 308 309 309 309 308 308 308 308 308 309 310 310 309 309 308 308 307 307 308 309 309 310 310 311 312 312 313 313 313 313 313 314 313 310 313 315 315 314 315 316 316 315 314 314 313 313 314 314 314 315 314 316 317 316 318 322 324 322 320 321 323 325 328 330 332 333 335 334 332 333 335 335 334 334 335 334 333 334
300 300 300 300 301 303 303 305 307 308 308 309 308 308 308 308 308 309 309 310 310 310 310 310 311 310 309 309 309 310 310 310 310 311 311 312 313 313 313 314 314 314 314 313 314 316 316 315 315 316 316 316 314 314 314 313 315 315 316 317 316 316 317 316 317 321 323 322 320 320 322 325 328 329 330 333 335 336 335 335 335 335 335 335 336 337 336 336
Wind_Speed
13 13 13 13 13 13 13 14 14 14 14 14 15 15 15 15 15 14 14 14 15 15 16 16 16 16 15 15 15 15 15 13 7 5 9 13 13 13 13 13 14 15 15 11 8 8 9 11 13 13 14 16 17 19 20 21 23 19 12 11 13 13 15 15 15 16 15 16 16 19 25 19 17 14 16 15 16 18 23 22 19 16 15 9 22 23 25 22
13 13 13 13 14 14 14 14 14 14 15 15 14 15 15 15 14 14 15 15 15 16 16 17 17 17 16 15 16 17 16 14 13 11 13 14 10 7 7 10 7 7 10 7 5 8 10 11 13 14 17 18 18 19 19 21 24 18 9 12 15 13 16 19 19 20 18 19 19 19 24 22 20 15 17 17 16 18 21 20 16 15 17 13 24 23 20 17
14 14 14 14 15 15 16 15 15 15 16 16 15 15 15 15 14 15 14 14 15 16 16 17 18 18 17 16 16 16 17 19 17 11 10 7 4 4 10 12 7 4 3 3 5 10 11 12 12 14 18 18 19 20 20 20 21 21 16 12 15 15 18 25 26 25 23 25 24 22 24 22 22 22 18 16 14 14 16 16 14 16 18 12 24 27 21 17
14 15 15 15 15 16 16 16 17 17 17 16 16 16 16 15 15 14 14 15 16 16 17 17 18 19 17 18 16 15 19 20 10 4 6 4 4 7 14 11 7 6 1 2 8 11 12 14 14 16 18 18 20 22 20 21 19 19 19 14 16 19 19 26 29 28 28 28 27 24 25 23 21 23 23 19 12 10 16 19 21 20 23 22 25 28 22 19
15 15 15 15 16 16 16 16 17 18 17 16 16 16 16 16 15 14 15 15 16 16 17 17 18 18 18 17 13 14 17 11 1 3 7 7 11 14 14 11 9 6 2 3 9 11 11 14 15 17 17 15 18 19 19 26 23 16 19 23 24 24 20 23 29 30 30 30 28 23 23 23 22 24 27 26 14 9 15 21 22 21 25 25 21 25 18 17
15 15 15 16 16 17 17 17 17 18 17 17 16 16 16 15 15 15 15 15 16 16 17 17 18 18 17 16 12 12 10 6 3 7 11 12 17 17 14 13 11 7 4 5 9 10 11 13 15 17 16 14 15 17 19 27 26 15 17 27 32 31 23 24 29 29 32 31 26 23 25 26 24 24 28 28 20 16 18 19 20 19 26 23 19 26 17 17
15 15 15 16 17 18 18 18 17 17 17 16 16 16 15 14 13 13 13 13 13 14 15 16 17 18 18 16 12 9 11 12 7 9 12 15 17 16 15 13 10 8 7 9 10 10 11 13 16 18 15 13 16 18 20 26 27 20 17 22 31 34 29 30 33 30 33 31 28 30 29 28 26 21 24 27 26 28 19 15 20 20 22 21 26 25 16 17
16 16 16 16 17 18 19 19 18 18 17 17 17 16 15 14 13 13 12 12 12 12 13 13 15 16 16 17 14 12 12 8 2 6 12 15 14 15 15 11 9 9 9 10 10 10 11 13 17 18 14 14 16 18 20 22 23 22 20 22 27 32 31 33 36 35 36 33 30 31 29 30 33 26 23 27 29 31 24 14 17 21 20 15 27 23 15 13
17 17 17 17 17 19 19 19 20 19 18 18 18 18 17 16 16 15 15 15 15 14 14 14 14 14 13 14 11 11 8 3 2 5 10 10 10 12 11 8 8 9 10 10 11 11 12 13 15 16 15 17 19 19 22 19 16 20 24 25 25 26 29 30 32 35 37 35 31 27 26 29 32 27 24 35 35 26 26 24 16 19 23 23 17 18 20 15
17 17 18 18 18 19 19 20 20 20 19 18 19 19 19 18 17 17 17 18 18 17 18 16 14 13 11 10 9 8 6 6 4 5 7 9 10 10 9 8 8 9 11 11 12 12 13 13 14 16 17 19 20 20 22 19 16 23 27 27 26 26 28 29 30 34 34 34 36 30 25 27 28 23 18 33 38 22 22 29 20 17 22 31 32 16 17 18
17 17 18 19 18 19 19 20 21 20 20 20 20 20 19 18 17 16 16 17 17 18 19 17 14 11 9 9 10 9 7 7 5 6 9 12 12 10 10 10 10 11 12 12 13 13 14 14 14 15 13 13 18 20 23 24 23 27 28 24 26 28 28 28 27 30 28 26 36 35 26 27 27 22 21 25 27 22 22 28 25 18 19 26 33 20 15 19
18 18 18 19 20 20 20 21 22 22 21 21 21 21 19 18 17 17 16 17 17 17 17 15 13 10 10 12 19 17 11 11 12 14 14 15 15 14 14 14 13 13 13 14 14 13 14 14 15 16 14 12 13 14 17 25 28 28 26 20 22 24 23 28 29 29 26 20 28 28 20 25 24 24 32 29 22 25 29 28 27 24 20 23 28 18 17 20
18 20 19 19 21 21 21 21 22 22 22 22 21 20 19 18 17 16 17 17 18 18 17 14 12 10 10 16 23 20 16 16 17 17 16 16 16 16 16 16 15 15 15 16 16 14 14 14 15 19 21 18 15 13 16 22 27 25 22 17 17 18 17 25 28 28 26 21 26 23 14 21 23 24 32 31 27 30 33 31 26 26 24 23 24 20 21 24
18 20 21 20 22 22 22 21 21 22 22 22 21 20 18 17 16 16 17 18 18 18 17 12 10 8 12 21 22 18 16 18 17 17 16 15 15 16 16 15 15 16 16 17 17 15 15 15 16 19 20 20 19 18 19 18 19 18 17 14 13 13 14 18 21 23 22 22 27 23 13 16 20 22 29 31 32 32 32 33 27 24 25 26 26 22 24 26
20 21 21 21 21 21 21 20 21 22 22 22 21 19 18 17 15 15 16 17 16 17 14 11 9 7 15 22 19 14 13 17 19 18 16 13 15 16 15 14 15 15 16 16 16 15 15 15 17 17 17 19 19 17 12 11 12 12 13 14 13 13 13 17 20 21 21 21 25 21 13 13 16 20 28 31 34 35 33 31 30 28 25 26 27 25 26 26
21 21 21 21 22 20 20 21 21 22 23 23 21 19 18 15 13 14 15 14 14 14 11 10 9 9 12 13 9 9 11 14 16 13 12 12 13 14 14 13 14 14 15 15 14 14 13 15 18 18 16 15 14 12 9 9 10 11 13 13 15 15 13 15 17 22 25 20 21 22 15 12 14 19 26 29 30 34 32 30 33 31 28 27 26 26 27 26
21 21 21 22 22 20 21 22 22 23 23 22 21 19 17 12 11 11 9 9 10 9 7 8 9 11 14 12 9 10 9 8 10 8 8 9 10 12 13 13 13 12 13 14 14 14 14 16 16 14 14 12 11 11 10 11 11 11 13 13 15 18 15 14 14 19 26 20 18 23 20 16 16 17 24 29 29 30 28 31 34 31 30 29 27 27 28 26
21 22 22 21 22 21 21 22 23 24 22 20 20 19 15 9 9 10 10 8 6 5 7 9 9 8 13 16 14 12 9 7 7 8 7 8 9 10 12 13 11 10 12 14 15 17 15 15 14 10 10 11 11 13 13 15 16 14 14 12 13 18 18 16 14 15 22 22 21 22 21 22 20 17 20 26 29 31 28 28 30 31 29 28 29 30 30 26
21 22 22 22 22 21 22 23 23 22 20 21 19 15 11 8 10 10 10 8 6 8 8 10 16 10 9 12 14 15 14 13 11 11 7 8 9 9 11 12 12 13 13 11 13 18 15 12 13 11 11 14 16 19 19 20 20 18 17 14 14 16 16 17 16 17 20 20 22 23 21 20 20 20 21 23 26 30 31 28 25 28 28 26 29 30 28 24
21 21 21 21 21 22 23 23 22 20 19 20 17 12 12 9 5 6 5 9 14 15 18 16 18 19 19 19 19 18 16 16 17 16 10 10 12 12 13 13 14 14 12 10 11 16 16 11 11 13 15 20 23 24 25 23 22 20 17 17 18 16 15 17 18 20 20 17 18 23 22 20 20 21 22 25 26 24 25 26 21 24 26 25 26 27 25 21
21 21 21 20 21 23 24 23 20 16 14 13 12 10 13 14 8 8 10 14 19 20 25 26 23 26 27 25 24 21 18 17 20 21 15 13 14 13 13 14 14 11 12 14 12 13 15 12 14 19 22 23 23 24 25 25 24 22 18 17 17 16 15 19 20 19 20 17 16 21 21 21 22 19 19 24 25 20 19 21 20 22 25 25 25 26 28 23
20 21 21 21 22 23 24 23 16 10 10 9 7 9 11 12 10 12 15 17 21 23 26 27 25 27 26 24 23 20 18 18 19 21 18 17 16 13 12 13 13 11 12 13 11 10 12 14 19 23 22 22 23 23 26 26 25 21 17 14 14 15 15 18 22 21 19 15 13 18 18 18 21 20 19 21 21 22 24 24 23 23 23 25 27 26 29 26
19 20 22 22 22 24 24 20 10 7 10 10 7 10 11 11 11 11 13 14 19 23 24 24 22 21 21 21 18 15 15 16 16 17 17 19 19 16 14 13 13 13 13 12 11 11 10 14 22 24 22 22 24 24 26 24 20 18 16 13 13 16 15 13 18 22 19 15 13 15 15 13 17 19 19 21 24 25 30 29 24 25 24 24 27 26 26 27
19 20 22 23 23 24 22 13 7 7 9 9 10 10 9 10 10 11 13 12 14 17 15 17 18 17 14 11 10 12 15 15 15 16 16 19 22 18 15 15 14 13 14 14 17 16 14 18 22 23 23 25 24 24 25 19 15 19 20 17 14 17 20 14 15 20 18 17 17 15 11 10 14 19 18 19 23 24 27 29 23 24 26 23 25 25 26 28
19 20 22 23 23 23 18 9 7 8 8 9 8 6 7 9 9 10 12 9 9 8 7 10 10 8 5 4 5 10 14 16 18 17 16 18 20 17 15 16 13 13 16 17 17 16 17 23 25 23 23 26 24 22 23 19 14 17 22 24 21 19 22 19 18 18 13 14 17 15 10 9 13 19 18 16 18 20 21 23 23 24 26 25 24 24 27 27
20 21 22 22 20 19 14 6 4 9 8 6 5 5 7 8 9 10 8 5 4 3 7 7 5 4 4 5 6 8 10 11 15 17 18 18 19 18 14 13 12 13 15 14 12 9 13 23 26 22 22 26 24 20 23 23 15 13 19 25 26 23 21 22 22 18 11 11 15 16 11 8 10 16 18 16 18 20 19 19 23 25 27 27 27 25 27 28
20 22 22 18 15 14 11 6 8 8 5 5 5 7 8 8 10 9 4 4 3 2 3 5 4 3 4 5 5 7 7 5 9 13 17 17 18 18 14 12 12 12 11 9 8 8 13 21 24 24 23 22 20 17 21 25 17 12 17 23 27 26 23 21 21 17 12 10 11 16 14 9 9 12 16 18 18 20 22 19 19 23 26 29 29 28 28 30
21 22 19 13 10 11 10 9 8 5 5 8 7 7 7 8 9 6 3 4 1 2 1 3 2 2 3 7 9 12 12 10 9 7 9 13 16 17 14 14 15 14 12 9 9 11 15 19 22 24 21 16 16 18 22 26 19 15 19 22 25 25 23 20 17 15 13 11 10 17 17 10 9 10 13 18 19 19 22 22 20 21 25 29 30 30 30 31
20 21 16 9 8 11 12 10 7 5 6 7 7 6 7 8 7 3 2 3 0 2 1 0 1 2 4 8 10 14 15 13 10 5 5 10 14 16 14 15 16 16 15 13 12 12 13 19 23 21 17 14 17 20 24 25 19 18 21 21 23 22 20 18 15 14 14 12 12 17 18 11 8 10 12 14 17 18 17 18 19 21 25 29 31 30 29 30
20 19 13 7 7 9 10 9 10 8 6 6 7 6 7 6 3 3 2 1 1 2 2 1 2 4 7 9 9 12 12 12 13 10 8 11 16 19 17 18 16 12 13 13 14 15 16 23 23 17 13 13 18 20 23 25 22 21 21 19 19 18 16 14 12 12 11 11 14 19 21 15 9 9 12 12 13 16 15 14 16 20 25 27 31 31 29 30
21 17 10 6 6 6 5 7 11 9 5 6 6 5 7 4 2 3 2 0 2 4 3 2 5 9 10 11 9 9 10 11 9 7 7 9 14 16 15 14 12 8 9 10 11 14 17 20 17 14 16 17 18 19 20 24 24 20 16 14 14 13 13 12 10 10 10 11 15 20 22 19 12 8 11 14 15 17 17 16 16 19 23 25 29 32 31 31
20 14 6 4 4 5 2 5 8 7 6 6 5 4 5 3 2 4 2 3 3 2 4 5 9 11 12 14 12 10 10 9 7 8 9 9 10 11 11 10 8 7 8 8 8 11 13 15 17 16 18 19 17 15 16 19 20 18 15 14 14 12 11 10 9 10 11 11 14 19 20 17 12 10 12 15 19 19 17 17 19 19 23 26 28 30 32 32
16 8 3 3 4 5 4 5 5 7 5 3 4 5 4 3 3 3 4 5 2 2 7 10 12 15 15 14 12 8 7 9 9 10 11 10 9 9 13 14 12 10 8 7 8 8 8 13 18 16 15 18 18 12 12 13 16 18 15 14 13 11 10 10 11 11 11 12 15 19 18 13 9 11 14 15 16 18 16 18 22 23 25 27 28 29 31 32
10 6 3 3 4 3 6 5 4 6 4 3 4 4 4 4 4 6 8 6 5 7 11 13 15 18 17 12 10 6 4 8 11 10 9 9 9 9 11 15 18 15 8 5 5 7 9 8 13 15 11 13 16 13 11 13 14 16 15 14 13 11 10 9 10 11 10 11 15 17 14 10 9 8 13 16 15 12 18 21 23 26 28 28 28 29 30 32
7 8 6 4 4 4 5 4 4 5 4 4 5 4 4 5 4 6 8 7 8 10 12 15 15 15 13 9 9 6 1 5 8 8 8 9 9 9 9 12 17 15 8 5 2 6 12 8 8 14 11 12 16 15 14 14 13 14 15 14 13 13 11 7 8 9 8 9 11 11 8 7 8 5 10 16 14 8 14 20 19 22 29 28 27 29 29 32
5 7 7 5 5 5 4 3 5 5 5 5 5 5 4 5 5 6 8 8 10 10 11 13 10 8 8 6 7 5 3 6 7 5 6 9 10 12 11 10 14 15 10 6 2 4 10 8 8 13 12 14 17 15 15 13 10 11 13 13 13 16 13 8 7 8 7 8 8 9 8 7 8 6 8 15 13 7 8 15 13 16 27 27 25 28 29 31
6 4 6 6 4 4 4 4 5 5 5 4 4 5 5 6 6 7 9 10 10 9 8 7 3 3 5 4 6 7 3 5 6 4 5 7 9 11 13 12 15 17 14 9 5 6 6 6 9 15 16 16 18 19 18 18 13 11 11 13 14 15 13 8 7 7 7 9 8 10 12 9 8 8 9 13 15 9 7 12 12 13 22 23 22 26 28 31
8 4 6 5 2 4 5 5 5 5 4 4 6 8 6 7 8 10 12 11 9 8 6 4 1 1 3 4 6 8 5 4 5 4 4 5 5 8 12 12 13 15 17 14 7 5 6 4 7 16 17 15 16 17 15 17 20 15 12 14 13 11 10 8 6 7 8 8 7 10 14 11 9 8 10 12 13 12 10 12 14 13 15 17 21 25 27 29
11 6 7 6 2 7 9 5 4 5 4 4 5 6 6 8 12 14 15 13 8 8 6 5 5 2 2 5 8 9 8 6 6 5 4 5 4 6 9 10 11 12 14 15 8 3 5 4 4 13 18 14 11 12 9 11 17 16 13 13 11 8 9 9 6 7 9 7 7 10 12 9 8 7 14 14 12 13 14 12 12 12 13 18 22 23 26 29
11 8 7 6 3 8 10 4 3 6 5 4 6 7 8 10 14 17 17 12 6 5 5 6 7 4 3 6 8 8 7 6 7 7 5 5 5 4 8 11 11 12 12 12 8 4 3 3 3 10 15 13 8 9 11 11 11 11 10 11 11 9 8 9 8 8 9 7 7 8 8 7 7 7 14 19 14 13 14 11 9 10 15 21 24 23 26 27
11 7 5 4 3 5 7 3 4 6 4 5 7 9 10 11 12 16 17 13 7 7 9 10 10 7 5 6 6 7 7 6 6 7 6 5 6 4 9 13 11 9 11 9 7 5 2 2 4 7 11 11 11 12 14 15 12 9 8 11 13 10 9 9 8 8 9 8 7 6 6 7 8 8 10 14 13 12 15 14 10 11 17 21 24 26 26 25
11 6 3 5 4 3 4 6 6 6 4 5 9 10 11 11 11 13 15 13 11 9 9 10 10 7 6 5 5 6 7 5 5 6 6 6 7 6 8 15 14 9 8 6 6 7 4 0 4 6 9 11 14 15 16 17 15 13 11 12 12 10 10 8 7 7 8 9 9 7 6 4 8 12 10 9 13 14 17 17 12 13 18 20 24 28 26 26
12 9 7 8 7 4 4 6 6 4 5 10 14 13 13 10 7 10 13 12 10 9 7 8 7 5 5 5 4 4 6 6 6 7 8 6 9 14 13 15 15 10 7 5 6 7 8 3 4 6 7 11 14 15 16 17 16 13 12 12 12 12 12 9 7 6 6 9 9 7 5 1 2 6 7 9 15 15 16 19 16 14 18 19 23 26 25 29
17 15 10 6 5 5 5 6 7 6 9 13 14 15 14 10 7 9 12 11 8 7 7 8 8 7 4 4 5 4 5 5 5 7 7 4 9 19 17 15 15 9 6 7 4 3 5 3 3 5 6 9 11 12 12 14 13 10 9 13 15 16 14 9 7 6 5 9 12 8 6 4 3 2 1 7 16 15 14 19 19 17 18 20 22 23 25 30
18 13 8 4 3 6 8 8 7 7 10 13 13 15 14 12 12 11 9 9 8 7 7 9 13 14 7 3 4 5 6 6 5 5 5 4 9 16 13 14 14 10 9 11 7 3 3 0 1 5 6 8 9 10 10 10 9 8 11 15 18 18 16 9 6 5 4 9 12 7 5 7 5 1 1 5 8 10 13 18 19 19 21 23 24 24 26 28
13 7 6 8 8 9 11 11 9 7 9 11 10 12 13 13 14 12 9 6 5 7 11 12 13 13 8 6 6 3 5 7 6 5 5 5 6 8 8 11 14 12 11 11 8 5 1 1 5 9 8 8 11 13 13 12 11 11 14 18 18 16 17 12 6 4 5 7 3 5 8 9 7 5 6 6 3 2 6 12 16 18 21 25 27 27 28 27
9 5 6 9 10 10 9 11 11 8 10 11 8 10 15 14 13 11 8 5 7 9 10 10 8 8 10 12 10 4 3 7 7 5 5 7 7 5 4 9 13 12 8 7 9 6 1 2 9 13 14 12 12 17 18 17 17 17 17 18 17 16 18 14 6 4 8 7 1 7 11 9 6 4 5 6 5 3 3 4 8 14 17 21 26 28 28 27
8 7 8 8 6 7 8 11 14 12 14 14 9 9 14 14 13 11 6 6 12 12 6 5 7 11 13 14 12 6 4 6 7 6 5 5 7 7 6 7 10 10 5 6 8 4 1 4 9 12 14 12 11 16 21 19 18 18 17 17 16 16 17 13 9 8 8 4 3 9 11 9 6 4 4 4 3 4 7 6 10 14 16 19 23 25 25 25
10 9 10 10 8 11 14 17 19 17 14 12 8 8 12 15 16 15 9 8 12 11 7 6 10 13 15 14 11 7 5 5 5 4 4 5 7 6 5 5 8 10 8 7 3 4 1 4 7 11 11 9 13 15 21 21 18 17 16 16 16 16 16 15 12 6 3 6 8 12 13 9 5 5 6 6 7 2 7 11 14 15 15 18 20 22 23 25
12 11 12 14 13 15 17 18 17 14 10 9 8 9 13 17 18 16 13 12 11 8 7 8 11 13 14 12 9 8 9 9 8 6 5 6 6 4 3 4 4 5 8 8 4 4 2 3 3 7 7 8 13 15 20 22 19 17 17 16 16 14 15 16 12 3 6 8 7 9 10 7 4 6 5 6 5 2 6 11 14 16 17 19 21 22 24 26
11 12 13 13 11 12 14 15 12 9 7 8 9 11 14 16 17 16 15 15 12 9 7 9 11 11 11 10 10 11 13 12 11 11 10 9 7 4 3 5 7 6 6 7 5 4 2 3 4 5 5 8 11 15 20 21 19 18 17 16 16 13 12 13 10 4 5 6 4 5 5 5 5 6 5 7 5 5 9 11 13 15 17 19 21 23 25 27
14 13 11 11 10 11 12 12 11 9 7 8 11 13 14 16 18 17 13 11 14 16 14 11 10 8 8 10 12 13 14 13 14 14 13 13 11 8 8 8 6 5 5 3 3 4 2 2 4 3 4 7 11 15 19 19 15 12 12 14 16 14 12 12 11 8 4 5 3 3 4 4 4 7 6 4 5 5 7 12 13 15 18 19 20 22 24 27
Wind_Direction
355 351 349 348 347 345 345 342 342 342 340 339 338 339 338 337 338 337 337 337 338 339 338 341 341 344 354 0 353 342 339 336 329 342 312 280 264 264 271 277 270 263 261 259 263 265 260 253 243 235 231 229 227 228 229 226 228 229 232 233 236 237 234 237 236 242 252 255 247 237 247 249 252 238 172 198 227 238 262 256 243 230 220 160 126 141 149 155
348 344 343 343 344 342 341 338 338 336 334 333 332 334 333 333 333 333 335 333 335 335 336 340 339 342 350 0 358 343 338 336 337 324 293 277 272 266 302 324 313 278 254 239 261 271 262 251 241 229 224 227 225 222 223 220 222 225 230 235 234 235 237 239 240 243 246 254 259 252 249 245 248 240 161 171 213 224 242 249 253 237 222 161 142 160 161 163
346 344 341 341 339 338 336 332 332 329 327 329 327 328 328 328 329 329 329 328 331 331 335 337 337 339 345 359 357 345 342 335 330 305 272 274 244 255 330 338 353 357 248 212 276 273 265 258 250 237 227 227 226 220 219 216 218 223 226 238 234 233 239 238 240 244 244 248 254 255 254 252 249 238 202 192 204 220 235 226 237 248 239 196 158 163 171 177
343 343 342 341 339 337 335 333 331 327 327 326 324 323 322 322 322 323 322 325 329 330 335 334 335 336 341 355 353 352 345 327 318 235 231 264 263 303 327 332 354 5 13 292 289 273 266 262 258 250 237 230 227 224 224 215 215 222 224 237 237 234 240 237 238 243 244 249 256 254 253 259 257 246 241 242 219 215 251 229 214 229 241 225 177 159 165 177
337 338 338 337 337 335 332 331 329 329 329 326 323 321 318 318 315 317 320 323 325 327 330 329 332 331 337 349 351 357 342 326 49 242 269 280 291 310 325 330 337 342 13 313 289 273 262 255 253 250 243 236 226 223 227 220 218 226 229 236 237 236 241 236 235 240 243 249 256 254 251 255 258 254 247 250 241 208 239 241 222 216 241 242 178 149 151 160
327 329 331 333 333 332 329 328 327 328 327 323 323 321 319 318 312 314 316 318 319 320 323 324 328 327 333 341 347 356 323 306 13 286 283 293 295 310 325 327 326 337 0 318 290 273 256 247 243 241 238 237 230 225 227 223 222 229 234 235 236 235 239 240 236 237 240 242 246 247 250 254 253 254 251 250 251 232 216 232 247 224 231 237 156 144 151 149
324 321 322 327 330 330 327 325 324 324 324 321 318 315 314 309 304 305 305 308 307 310 315 318 325 325 329 337 348 347 277 276 305 261 273 292 294 306 315 323 334 334 322 296 283 269 253 243 236 236 237 235 233 231 230 228 226 231 236 235 237 236 234 239 241 243 242 239 239 241 247 252 251 253 256 252 252 254 233 210 251 259 235 204 145 142 149 146
334 327 322 324 329 330 325 323 323 322 320 319 316 311 306 302 300 301 299 300 298 302 308 311 322 322 332 347 351 332 286 275 327 263 286 299 297 304 308 323 335 311 287 278 276 274 265 249 237 235 239 237 235 234 233 233 231 232 236 236 238 237 234 235 238 241 245 245 242 240 240 241 244 249 253 251 247 251 255 235 235 259 262 201 149 147 159 173
338 333 328 327 328 326 323 322 323 321 318 317 317 312 308 305 303 305 305 306 305 305 308 312 320 318 336 349 330 311 285 213 58 302 298 307 299 298 304 311 306 288 277 274 271 271 265 257 247 238 243 247 244 240 233 232 233 233 236 237 238 238 236 235 236 235 238 243 246 247 246 240 241 247 246 245 242 234 248 263 238 226 252 249 212 169 158 180
334 331 328 326 325 322 320 320 320 320 317 315 314 311 309 307 306 307 307 308 307 307 310 315 323 322 328 329 305 290 256 236 290 298 282 289 291 293 295 290 290 286 279 275 269 261 256 258 258 255 259 255 250 248 239 235 235 237 240 239 238 241 239 237 237 235 233 236 238 242 249 246 245 252 251 239 236 225 237 260 253 213 226 250 259 227 171 176
333 330 326 323 320 315 315 315 313 312 312 311 312 311 310 308 305 303 303 304 304 306 310 316 324 318 306 292 264 253 255 260 287 296 288 291 294 293 287 281 282 278 275 276 270 262 257 258 263 266 266 256 251 251 248 245 244 241 242 244 239 237 239 239 239 236 234 233 232 237 247 247 239 240 253 245 236 232 238 254 256 232 209 237 260 244 206 198
331 326 320 319 317 310 309 312 310 308 309 309 311 312 312 311 306 301 299 299 301 305 310 316 317 302 293 270 249 255 274 274 279 284 283 282 280 278 276 276 271 267 268 270 269 267 263 259 260 258 256 263 255 248 252 249 248 247 241 244 242 236 233 233 236 234 235 235 228 232 245 245 233 225 239 243 240 242 245 252 251 245 225 228 251 236 218 222
327 323 317 317 319 314 309 313 316 315 313 312 311 313 313 313 311 306 301 301 304 307 310 313 308 296 278 258 259 275 282 272 277 280 277 273 272 273 272 270 265 262 260 260 266 267 265 260 256 254 256 265 261 266 281 259 246 245 241 239 240 240 233 226 229 228 232 236 225 226 235 235 231 224 231 235 236 242 248 252 244 242 239 231 242 231 222 232
321 324 324 321 321 320 312 313 319 319 316 313 313 315 314 312 311 307 300 302 304 304 307 304 299 287 255 261 281 292 272 265 271 268 270 272 271 272 268 266 262 259 254 254 261 263 264 261 257 257 254 256 263 276 288 269 241 234 237 238 231 236 231 223 225 222 228 231 220 226 240 230 230 225 228 232 234 238 243 246 240 232 236 234 236 229 223 232
318 323 327 325 323 323 320 319 321 320 317 314 316 316 314 312 308 303 299 300 302 302 302 291 284 258 252 271 290 294 266 259 263 261 262 261 262 266 264 263 258 254 251 249 255 257 258 257 253 254 247 246 256 266 274 266 244 224 226 230 223 230 229 222 222 216 224 224 210 220 241 229 231 229 227 229 229 234 238 239 237 231 230 229 229 227 223 229
324 326 327 325 322 322 324 323 321 319 319 319 318 315 314 313 303 302 300 297 300 298 286 273 267 239 255 282 284 280 271 253 255 261 257 249 252 259 261 264 258 249 243 240 246 252 250 246 246 246 245 240 238 242 249 250 238 219 220 224 218 221 226 223 217 215 222 219 202 214 235 233 231 229 230 232 227 227 229 233 235 231 227 225 224 224 224 228
327 327 326 325 323 323 323 323 321 322 324 322 318 317 319 307 287 290 286 293 305 297 279 269 258 233 242 263 269 282 290 262 251 247 248 249 248 257 261 261 256 242 236 238 241 244 241 236 238 240 238 234 224 223 230 229 220 213 216 223 221 217 222 221 212 214 215 210 206 217 230 235 232 226 226 231 234 231 223 224 232 231 223 219 222 227 227 224
327 327 326 325 324 324 323 322 323 327 327 322 321 324 320 282 255 264 263 288 312 272 266 253 241 247 245 245 257 272 289 298 266 236 248 256 246 255 257 254 252 237 237 243 237 234 233 227 228 232 226 224 221 216 218 220 215 213 212 214 220 220 221 217 214 215 204 200 212 223 229 230 230 233 232 227 229 237 233 221 222 227 225 214 215 226 228 214
328 328 327 324 324 325 323 323 326 331 328 323 328 330 315 269 243 252 246 250 236 219 250 226 203 223 267 265 270 269 269 276 253 223 228 254 254 251 247 247 246 237 237 240 227 221 222 223 223 224 221 217 214 214 217 221 222 221 217 215 217 220 222 214 215 221 207 201 211 222 230 228 224 228 239 237 225 229 236 231 214 213 221 216 211 221 224 202
327 325 325 325 326 325 323 325 331 335 328 328 342 346 337 331 279 254 229 241 248 250 273 264 222 235 266 278 284 283 276 269 249 231 232 259 262 251 243 238 234 234 232 236 231 217 214 221 222 218 221 219 216 218 221 224 231 231 224 221 218 218 223 216 215 219 217 215 211 216 227 228 226 222 225 237 234 225 230 234 219 203 209 213 213 213 216 202
326 324 326 326 327 325 323 328 335 339 335 341 355 340 337 356 348 317 318 293 278 270 270 269 258 258 268 274 277 280 276 269 260 254 250 246 245 245 242 232 231 233 224 229 243 232 220 225 227 224 225 226 223 221 222 224 229 234 230 224 218 216 221 220 220 217 218 229 218 208 219 227 230 227 216 224 235 232 226 231 224 207 200 206 218 210 206 211
328 328 328 326 327 324 323 331 341 355 3 8 357 313 315 344 341 318 317 300 283 274 264 264 264 263 268 270 269 267 263 261 262 258 241 225 227 234 237 232 233 238 233 231 240 241 232 230 230 228 228 230 231 225 220 221 224 232 235 229 223 215 216 222 224 217 213 229 225 206 212 224 229 233 223 215 225 233 230 230 222 210 200 199 216 214 201 205
331 330 327 326 326 323 327 338 354 25 18 9 339 308 310 327 326 317 314 297 285 279 265 255 252 251 256 260 259 255 255 257 262 256 236 229 234 234 235 241 241 241 243 238 236 238 237 234 228 229 231 229 231 228 218 217 220 226 231 236 233 218 213 215 218 216 213 222 222 210 214 222 224 232 232 218 218 227 229 233 223 207 206 202 211 214 200 194
334 331 327 326 325 324 333 351 28 35 4 338 319 312 315 322 326 326 317 292 282 286 266 241 235 234 242 253 248 236 240 248 257 254 238 234 238 235 233 242 248 249 246 241 244 242 238 241 232 225 229 229 228 227 218 212 215 221 224 233 233 219 216 212 212 212 211 221 217 204 216 227 220 224 228 220 217 221 223 230 225 203 203 210 214 211 203 192
334 331 327 327 327 329 342 21 44 7 334 317 320 321 324 326 323 328 321 292 274 272 232 214 218 218 232 262 245 238 250 255 253 249 240 236 235 233 233 234 241 251 249 244 247 247 238 241 238 225 222 227 229 225 218 210 209 217 221 228 233 228 219 210 210 210 202 220 211 191 211 232 220 221 221 215 214 216 217 222 223 204 194 205 218 211 203 194
335 332 329 331 334 338 351 26 348 319 314 325 340 333 331 328 315 319 320 290 277 215 173 173 192 202 234 255 241 246 262 262 258 251 241 238 234 233 239 234 231 244 251 250 243 246 243 237 239 235 221 221 228 227 219 212 209 216 213 221 233 240 231 212 208 214 207 210 196 183 210 235 219 220 217 212 210 211 214 217 219 211 195 198 215 211 200 195
336 333 333 339 348 353 353 334 309 311 327 333 330 327 330 325 313 316 308 263 254 211 167 149 180 229 245 255 243 236 257 299 293 261 235 233 233 230 237 238 237 241 243 252 243 235 244 237 235 238 227 216 223 225 218 212 210 216 207 213 227 236 238 219 208 220 217 200 196 194 205 228 232 220 209 209 212 210 212 215 215 213 201 194 207 211 199 196
336 333 335 347 5 7 354 338 327 326 333 327 324 324 323 324 319 314 293 285 233 169 180 133 180 288 273 269 254 242 264 290 296 277 233 235 230 223 230 235 242 250 237 233 243 237 241 239 231 232 230 215 216 223 216 211 211 212 207 210 219 227 238 228 211 221 214 196 211 209 202 213 235 227 209 205 209 213 211 209 211 214 206 193 198 208 198 195
335 332 333 347 14 7 352 356 0 311 303 319 321 317 314 321 321 293 246 290 21 132 323 328 226 267 265 272 258 249 265 269 266 279 250 249 238 225 235 242 241 252 246 235 245 248 242 244 237 230 232 218 212 221 217 211 211 210 210 212 211 217 236 237 221 218 214 208 214 212 209 215 226 225 220 207 205 212 212 208 205 211 213 197 190 202 198 194
332 330 330 336 12 5 333 342 1 338 317 311 306 310 310 311 304 263 236 253 328 15 358 226 242 283 277 278 265 255 259 256 263 268 241 250 249 233 240 253 249 251 248 239 248 257 254 258 253 234 237 231 213 217 221 214 209 207 212 212 203 208 228 237 228 214 217 226 213 208 214 219 220 219 220 218 208 203 206 211 202 201 213 199 183 195 200 196
331 327 327 329 355 9 298 310 350 349 321 296 300 311 300 292 260 259 267 249 283 333 340 269 307 313 297 293 285 265 260 254 259 255 233 246 248 234 233 245 249 248 243 235 246 257 256 263 264 234 234 244 223 213 218 215 207 206 213 207 193 200 216 222 223 215 221 230 210 206 218 221 217 220 218 218 216 205 198 206 205 194 204 199 181 189 198 199
331 326 328 323 350 38 343 308 337 327 289 284 296 307 295 283 239 238 280 334 285 324 343 321 326 323 305 299 288 272 272 261 229 214 222 229 230 231 229 225 223 229 233 226 232 250 250 254 257 233 221 237 235 210 208 213 205 204 208 202 191 190 200 205 208 211 219 227 211 205 219 225 216 218 222 212 213 215 201 198 206 195 195 198 186 186 193 198
336 336 352 338 356 18 333 310 318 299 290 300 290 287 287 282 288 282 311 327 315 335 328 326 328 319 307 298 285 273 275 262 233 214 216 226 229 232 238 236 227 224 232 228 227 239 240 243 248 233 207 222 236 215 199 204 198 201 203 195 190 186 187 191 197 207 212 217 213 205 214 233 226 211 220 221 217 213 196 192 202 194 190 193 188 189 192 195
354 10 4 348 0 324 290 293 299 291 301 319 283 269 272 268 286 316 319 322 332 329 323 327 326 314 304 294 287 289 278 259 241 206 194 218 232 230 238 240 230 226 237 239 238 234 226 231 235 225 197 202 226 228 211 199 195 203 204 194 195 193 188 189 196 204 205 205 211 209 209 226 230 196 196 224 244 216 181 187 198 187 182 186 186 192 193 191
22 18 349 334 356 324 299 288 272 283 294 294 284 268 271 272 280 314 325 329 328 326 323 320 310 298 298 295 292 294 236 257 242 197 192 212 225 229 231 238 228 220 225 227 254 240 229 231 218 211 196 189 213 230 223 207 196 201 202 198 196 193 190 198 209 203 200 203 209 216 217 214 224 211 183 208 243 243 172 178 190 176 172 179 186 195 194 189
24 5 327 313 326 318 321 293 260 278 293 294 291 277 269 280 296 321 329 322 318 322 322 314 299 287 299 302 303 302 217 242 246 214 212 214 229 236 226 235 227 209 203 212 237 237 227 232 211 203 205 204 208 221 228 225 204 193 204 202 194 198 196 194 209 202 195 207 205 211 221 208 210 231 218 201 207 230 172 167 182 169 165 175 187 194 193 190
34 10 308 302 296 286 283 271 257 262 287 298 287 285 292 299 304 310 310 311 318 323 318 313 314 302 297 290 304 313 286 253 250 241 228 212 226 231 222 239 236 211 196 198 230 256 246 243 210 200 205 207 207 215 229 243 232 197 199 202 195 204 204 188 204 201 191 208 206 201 207 207 203 203 215 204 186 180 172 173 186 169 161 172 186 191 191 189
2 346 293 279 280 308 276 252 258 256 278 289 266 271 281 289 292 296 305 314 319 311 294 285 285 235 269 285 302 310 305 278 256 246 240 220 213 211 215 236 240 215 196 191 213 286 288 272 209 201 201 196 205 216 223 243 242 221 200 198 195 204 199 184 200 196 192 207 203 199 201 205 214 183 171 198 188 163 169 186 186 175 165 172 183 189 187 184
334 308 269 239 242 306 284 257 265 258 265 277 268 279 288 298 303 307 320 326 312 294 276 257 258 234 225 270 295 309 303 279 268 259 235 214 197 194 211 228 229 213 197 190 196 264 280 286 227 207 200 183 193 216 212 227 238 232 216 201 199 213 199 187 201 197 196 205 194 199 202 198 216 187 163 186 191 165 175 193 185 179 175 171 179 187 181 179
326 295 258 217 210 297 294 291 256 249 258 266 273 297 306 309 311 312 323 331 312 276 266 263 270 272 256 263 285 304 301 289 285 276 247 215 209 216 230 234 223 205 196 190 191 220 249 282 264 213 197 185 191 213 215 212 215 229 231 204 197 217 207 193 207 205 199 206 198 196 199 192 208 206 179 181 184 174 180 192 190 183 176 172 177 181 176 180
318 288 258 221 212 288 290 276 247 253 263 266 279 303 311 312 313 311 317 324 309 266 261 272 276 276 277 275 286 296 297 303 292 282 278 244 235 243 228 229 225 198 187 190 197 216 230 276 263 218 190 193 198 201 219 223 207 210 225 203 196 208 208 197 199 203 200 202 203 199 202 200 201 218 206 179 177 186 184 187 198 187 178 173 171 174 177 178
310 290 306 290 297 318 286 275 270 253 246 286 304 313 317 315 311 312 315 318 312 289 267 266 267 265 266 264 274 293 301 300 268 267 282 263 261 270 220 209 216 201 177 190 211 204 185 66 281 235 199 199 198 196 217 228 213 207 213 206 202 206 211 210 193 193 201 197 200 204 205 205 186 197 207 169 170 192 188 188 196 184 180 173 164 171 174 164
318 315 318 300 303 313 274 281 295 277 286 319 323 319 322 321 306 309 318 320 318 313 297 282 274 263 253 241 241 283 313 300 259 247 255 260 268 266 237 202 205 201 171 192 219 193 176 174 261 242 206 199 199 194 209 224 219 213 213 214 219 212 209 214 192 185 215 205 194 193 195 206 126 180 195 158 164 188 192 189 188 177 180 173 159 161 157 148
314 304 293 280 298 303 278 297 321 319 315 322 324 323 325 325 315 312 318 325 323 310 303 298 292 283 261 226 234 272 309 292 255 244 243 241 258 256 239 199 197 203 181 187 198 196 198 194 219 224 197 193 196 189 201 219 215 209 219 226 229 216 202 210 200 190 226 206 187 187 194 175 76 25 284 147 162 184 190 185 182 173 175 172 161 157 151 145
308 303 301 301 294 276 268 285 306 312 315 320 322 322 323 322 323 325 322 320 317 308 309 303 296 297 297 273 260 270 282 276 269 269 261 248 247 245 225 190 191 203 199 183 170 212 245 43 219 224 196 182 187 187 194 205 204 212 224 226 230 215 195 201 212 189 213 208 192 186 170 145 124 87 62 135 167 190 178 174 179 174 170 169 163 160 156 149
307 319 342 334 315 291 278 284 298 306 316 326 323 316 321 321 319 332 346 336 323 319 312 302 297 304 317 326 311 271 269 281 271 262 281 287 259 234 203 185 191 206 206 182 175 212 231 88 254 251 231 199 188 187 190 191 195 210 215 218 229 218 193 199 226 199 210 230 198 108 115 133 145 168 174 169 185 189 152 168 177 171 165 164 160 154 152 152
320 338 355 340 319 310 315 320 329 331 319 322 321 309 319 320 315 333 354 329 319 328 316 302 311 331 338 336 329 309 308 307 285 273 294 296 289 279 240 196 193 206 209 184 194 213 180 227 250 253 248 230 199 188 192 195 197 203 206 211 220 210 193 199 230 211 208 234 213 113 128 136 136 147 172 178 178 170 169 170 150 136 133 141 145 144 147 153
356 339 343 355 325 302 323 322 317 315 305 306 311 309 317 323 323 333 345 315 318 331 328 300 314 331 331 332 331 322 326 324 309 316 321 302 306 303 267 216 199 198 202 215 208 183 94 264 257 250 245 247 232 204 195 199 204 203 200 199 203 203 195 201 227 222 208 217 108 108 109 108 105 79 37 356 313 206 180 143 114 114 118 127 136 141 148 155
0 333 330 346 324 294 298 296 291 291 294 302 314 320 325 328 328 331 335 323 316 322 329 304 302 318 321 321 324 317 312 323 316 315 329 333 333 314 270 242 217 197 198 223 191 90 41 258 260 254 241 250 261 228 195 195 205 203 197 196 202 207 199 199 216 219 127 96 99 101 97 98 91 53 24 343 326 285 161 143 135 141 146 146 148 152 159 164
358 342 328 327 313 293 292 293 286 282 297 322 332 332 330 328 329 332 330 320 309 311 318 292 285 301 307 305 305 290 287 299 285 266 298 331 329 304 287 303 287 230 218 213 146 92 262 260 301 282 245 230 251 233 198 194 200 199 197 199 204 210 204 198 203 187 88 98 116 122 117 115 96 62 27 333 308 198 159 151 149 155 161 160 160 164 169 171
349 334 322 317 308 296 298 300 294 291 315 342 341 333 330 327 329 328 319 311 309 306 296 275 272 288 292 285 277 265 267 275 263 255 271 288 291 291 284 309 332 324 257 218 145 106 256 296 330 302 251 226 236 226 201 193 197 199 197 195 198 207 212 202 196 181 117 118 150 165 135 114 111 108 63 350 309 206 170 160 156 160 165 166 165 168 171 170
346 338 328 316 297 293 302 302 303 317 334 343 340 332 326 326 328 325 318 316 319 317 311 297 287 290 287 277 273 270 266 257 249 253 263 267 267 262 254 262 286 300 272 243 105 106 159 298 323 302 254 232 227 219 200 188 194 203 194 191 192 195 208 211 204 196 151 128 171 172 136 129 114 113 101 47 327 263 183 164 167 167 166 168 169 170 172 169